Location: Finnegan
(51.1333°N, 112.0833°W)
Time: 07:43:39
(UTC+00:00)

N. Korean satellite - Pass Details

Date: 04 December 2021
Orbit: 446 x 491 km, 97.3° (Epoch: 18 January)

Event Time Altitude Azimuth Distance (km) Brightness Sun altitude
Rises 14:07:10 0° 358° (N) 2,476 9.9 -10.0°
Reaches altitude 10° 14:09:51 10° 335° (NNW) 1,591 8.7 -9.6°
Maximum altitude 14:11:51 15° 298° (WNW) 1,306 8.1 -9.3°
Drops below altitude 10° 14:13:51 10° 262° (W) 1,579 8.7 -9.0°
Sets 14:16:37 0° 238° (WSW) 2,483 9.8 -8.7°
